| time (UTC) | temp F | wind direction | speed knots | gust knots | rain 1hr in | rain 24hr in | rain mn in | humidity % | barometer mb |
| 20260507093038 | 61 | 53 | 2.6 | 0.0 | 0.00 | 0.00 | 0.00 | 61 | 1013.9 |
| 20260507090038 | 60 | 82 | 2.6 | 0.0 | 0.00 | 0.00 | 0.00 | 63 | 1013.9 |
| 20260507084534 | 60 | 54 | 2.6 | 0.0 | 0.00 | 0.00 | 0.00 | 66 | 1013.8 |
| 20260507083023 | 58 | 44 | 2.6 | 0.0 | 0.00 | 0.00 | 0.00 | 68 | 1013.8 |
| 20260507080019 | 57 | 24 | 3.5 | 0.0 | 0.00 | 0.00 | 0.00 | 70 | 1013.8 |
| 20260507074526 | 56 | 48 | 2.6 | 0.0 | 0.00 | 0.00 | 0.00 | 70 | 1013.7 |
| 20260507073012 | 56 | 82 | 2.6 | 0.0 | 0.00 | 0.00 | 0.00 | 71 | 1013.6 |
| 20260507070018 | 54 | 57 | 3.5 | 0.0 | 0.00 | 0.00 | 0.00 | 75 | 1013.5 |
| 20260507064513 | 54 | 56 | 3.5 | 0.0 | 0.00 | 0.00 | 0.00 | 77 | 1013.5 |
| 20260507063010 | 53 | 51 | 4.3 | 0.0 | 0.00 | 0.00 | 0.00 | 77 | 1013.3 |
| 20260507060105 | 51 | 5 | 2.6 | 0.0 | 0.00 | 0.00 | 0.00 | 83 | 1013.4 |
| 20260507054552 | 49 | 64 | 1.7 | 0.0 | 0.00 | 0.00 | 0.00 | 87 | 1013.3 |
| 20260507053049 | 47 | 48 | 1.7 | 0.0 | 0.00 | 0.00 | 0.00 | 89 | 1013.0 |
| 20260507050042 | 45 | 47 | 1.7 | 0.0 | 0.00 | 0.00 | 0.00 | 90 | 1012.7 |
| 20260507044534 | 45 | 46 | 0.9 | 0.0 | 0.00 | 0.00 | 0.00 | 91 | 1012.7 |
| 20260507043031 | 45 | 0.0 | 0.0 | 0.00 | 0.00 | 0.00 | 91 | 1012.4 | |
| 20260507040023 | 45 | 0.0 | 0.0 | 0.00 | 0.00 | 0.00 | 90 | 1012.4 | |
| 20260507034530 | 45 | 0.0 | 0.0 | 0.00 | 0.00 | 0.00 | 89 | 1012.2 | |
| 20260507033018 | 45 | 0.0 | 0.0 | 0.00 | 0.00 | 0.00 | 89 | 1012.0 | |
| 20260507030015 | 46 | 0.0 | 0.0 | 0.00 | 0.00 | 0.00 | 89 | 1011.9 | |
| 20260507024506 | 46 | 0.0 | 0.0 | 0.00 | 0.00 | 0.00 | 88 | 1011.8 | |
| 20260507023001 | 46 | 0.0 | 0.0 | 0.00 | 0.00 | 0.00 | 88 | 1011.8 | |
| 20260507020055 | 47 | 0.0 | 0.0 | 0.00 | 0.00 | 0.00 | 87 | 1011.6 | |
| 20260507014551 | 47 | 0.0 | 0.0 | 0.00 | 0.00 | 0.00 | 87 | 1011.7 | |
| 20260507013045 | 48 | 0.0 | 0.0 | 0.00 | 0.00 | 0.00 | 86 | 1011.5 | |
| 20260507010044 | 48 | 0.0 | 0.0 | 0.00 | 0.00 | 0.00 | 85 | 1011.4 | |
| 20260507004532 | 48 | 0.0 | 0.0 | 0.00 | 0.00 | 0.00 | 84 | 1011.3 | |
| 20260507003028 | 49 | 0.0 | 0.0 | 0.00 | 0.00 | 0.00 | 83 | 1011.4 | |
| 20260507000023 | 49 | 0.0 | 0.0 | 0.00 | 0.00 | 0.00 | 81 | 1011.3 | |
| 20260506234517 | 50 | 0.0 | 0.0 | 0.00 | 0.00 | 0.00 | 80 | 1011.2 | |
| 20260506233012 | 50 | 0.0 | 0.0 | 0.00 | 0.00 | 0.00 | 79 | 1011.0 | |
| 20260506230013 | 51 | 0.0 | 0.0 | 0.00 | 0.00 | 0.00 | 76 | 1010.9 | |
| 20260506224503 | 52 | 0.0 | 0.0 | 0.00 | 0.00 | 0.00 | 75 | 1010.9 | |
| 20260506223101 | 52 | 0.0 | 0.0 | 0.00 | 0.00 | 0.00 | 74 | 1010.8 | |
| 20260506221657 | 53 | 0.0 | 0.0 | 0.00 | 0.00 | 0.00 | 73 | 1010.7 | |
| 20260506220057 | 53 | 0.0 | 0.0 | 0.00 | 0.00 | 0.00 | 73 | 1010.6 | |
| 20260506214600 | 54 | 0.0 | 0.0 | 0.00 | 0.00 | 0.00 | 72 | 1010.5 | |
| 20260506213048 | 54 | 0.0 | 0.0 | 0.00 | 0.00 | 0.00 | 72 | 1010.4 | |
| 20260506211645 | 54 | 0.0 | 0.0 | 0.00 | 0.00 | 0.00 | 71 | 1010.3 | |
| 20260506204608 | 55 | 0.0 | 0.0 | 0.00 | 0.00 | 0.00 | 72 | 1010.0 | |
| 20260506203051 | 55 | 0.0 | 0.0 | 0.00 | 0.00 | 0.00 | 70 | 1009.9 | |
| 20260506201649 | 55 | 0.0 | 0.0 | 0.00 | 0.00 | 0.00 | 70 | 1009.7 | |
| 20260506200059 | 55 | 0.0 | 0.0 | 0.00 | 0.00 | 0.00 | 71 | 1009.5 | |
| 20260506194555 | 55 | 0.0 | 0.0 | 0.00 | 0.00 | 0.00 | 75 | 1009.4 | |
| 20260506193052 | 55 | 0.0 | 0.0 | 0.00 | 0.00 | 0.00 | 75 | 1009.3 | |
| 20260506191648 | 55 | 0.0 | 0.0 | 0.00 | 0.00 | 0.00 | 73 | 1009.2 | |
| 20260506190025 | 56 | 0.0 | 0.0 | 0.00 | 0.00 | 0.00 | 73 | 1009.1 | |
| 20260506184525 | 56 | 0.0 | 0.0 | 0.00 | 0.00 | 0.00 | 73 | 1009.0 | |
| 20260506183037 | 56 | 0.0 | 0.0 | 0.00 | 0.00 | 0.00 | 72 | 1008.9 | |
| 20260506181534 | 56 | 0.0 | 0.0 | 0.00 | 0.00 | 0.00 | 65 | 1008.7 | |
| 20260506180032 | 56 | 0.0 | 0.0 | 0.00 | 0.00 | 0.00 | 63 | 1008.4 | |
| 20260506174524 | 56 | 0.0 | 0.0 | 0.00 | 0.00 | 0.00 | 62 | 1008.3 | |
| 20260506173028 | 56 | 0.0 | 0.0 | 0.00 | 0.00 | 0.00 | 67 | 1008.2 | |
| 20260506171526 | 56 | 57 | 3.5 | 0.0 | 0.00 | 0.00 | 0.00 | 73 | 1008.1 |
| 20260506170026 | 57 | 34 | 4.3 | 0.0 | 0.00 | 0.00 | 0.00 | 72 | 1008.0 |
| 20260506164526 | 58 | 42 | 4.3 | 0.0 | 0.00 | 0.00 | 0.00 | 71 | 1007.9 |
| 20260506163103 | 58 | 65 | 5.2 | 0.0 | 0.00 | 0.00 | 0.00 | 70 | 1007.7 |
| 20260506161610 | 58 | 49 | 4.3 | 0.0 | 0.00 | 0.00 | 0.00 | 70 | 1007.7 |
| 20260506160109 | 58 | 14 | 4.3 | 0.0 | 0.00 | 0.00 | 0.00 | 68 | 1007.7 |
| 20260506154601 | 59 | 80 | 5.2 | 0.0 | 0.00 | 0.00 | 0.00 | 67 | 1007.8 |
| 20260506153001 | 59 | 351 | 5.2 | 0.0 | 0.00 | 0.00 | 0.00 | 68 | 1007.6 |
| 20260506151502 | 59 | 46 | 5.2 | 0.0 | 0.00 | 0.00 | 0.00 | 68 | 1007.5 |
| 20260506150104 | 60 | 48 | 6.1 | 0.0 | 0.00 | 0.00 | 0.00 | 64 | 1007.6 |
| 20260506150002 | 60 | 64 | 6.1 | 0.0 | 0.00 | 0.00 | 0.00 | 64 | 1007.5 |
| 20260506144612 | 61 | 351 | 5.2 | 0.0 | 0.00 | 0.00 | 0.00 | 67 | 1007.4 |
| 20260506143054 | 60 | 9 | 5.2 | 0.0 | 0.00 | 0.00 | 0.00 | 67 | 1007.3 |
| 20260506141551 | 60 | 348 | 5.2 | 0.0 | 0.00 | 0.00 | 0.00 | 64 | 1007.5 |
| 20260506140105 | 60 | 36 | 5.2 | 0.0 | 0.00 | 0.00 | 0.00 | 64 | 1007.5 |
| 20260506134547 | 60 | 348 | 5.2 | 0.0 | 0.00 | 0.00 | 0.00 | 68 | 1007.6 |
| 20260506133035 | 59 | 355 | 6.1 | 0.0 | 0.00 | 0.00 | 0.00 | 69 | 1007.7 |
| 20260506131543 | 59 | 336 | 5.2 | 0.0 | 0.00 | 0.00 | 0.00 | 68 | 1007.6 |
| 20260506130045 | 59 | 336 | 6.1 | 0.0 | 0.00 | 0.00 | 0.00 | 69 | 1007.5 |
| 20260506124534 | 58 | 355 | 4.3 | 0.0 | 0.00 | 0.00 | 0.00 | 70 | 1007.3 |
| 20260506123044 | 58 | 62 | 6.1 | 0.0 | 0.00 | 0.00 | 0.00 | 68 | 1007.3 |
| 20260506121545 | 59 | 355 | 5.2 | 0.0 | 0.00 | 0.00 | 0.00 | 70 | 1007.3 |
| 20260506120037 | 58 | 79 | 5.2 | 0.0 | 0.00 | 0.00 | 0.00 | 74 | 1007.3 |
| 20260506114536 | 57 | 48 | 4.3 | 0.0 | 0.00 | 0.00 | 0.00 | 74 | 1007.2 |
| 20260506113034 | 58 | 51 | 4.3 | 0.0 | 0.00 | 0.00 | 0.00 | 74 | 1007.2 |
| 20260506111532 | 59 | 346 | 6.1 | 0.0 | 0.00 | 0.00 | 0.00 | 72 | 1007.1 |
| 20260506110038 | 59 | 294 | 6.1 | 0.0 | 0.00 | 0.00 | 0.00 | 71 | 1007.1 |
| 20260506104528 | 59 | 77 | 4.3 | 0.0 | 0.00 | 0.00 | 0.00 | 71 | 1007.1 |
| 20260506103025 | 58 | 337 | 5.2 | 0.0 | 0.00 | 0.00 | 0.00 | 72 | 1007.0 |
| 20260506101529 | 57 | 277 | 3.5 | 0.0 | 0.00 | 0.00 | 0.00 | 74 | 1007.0 |
| 20260506100023 | 57 | 49 | 4.3 | 0.0 | 0.00 | 0.00 | 0.00 | 75 | 1006.9 |
| 20260506094526 | 57 | 19 | 4.3 | 0.0 | 0.00 | 0.00 | 0.00 | 71 | 1007.0 |